{"data":{"norad_id":59379,"intl_designator":"2024-062F","name":"STARLINK-31698","alt_names":[],"object_type":"PAYLOAD","status":"ACTIVE","operator":null,"country":"US","launch_date":"2024-04-02","launch_site_code":"AFWTR","launch_vehicle":null,"mission":null,"orbit_class":"UNKNOWN","rcs_meters":null,"size_class":null,"mass_kg":null,"dimensions":null,"purposes":["comms"],"wikipedia_slug":null,"has_3d_model":false,"image_url":null,"decayed_at":null,"tle_current":{"epoch":"2026-05-25T01:18:49.743360Z","epoch_age_seconds":73615,"freshness":"FRESH","line1":"1 59379U 24062F   26145.05474240 -.00002174  00000+0 -61286-4 0  9993","line2":"2 59379  53.1603 260.9412 0001023  87.1035 273.0083 15.30207037121327","mean_motion":15.30207037,"eccentricity":0.0001023,"inclination_deg":53.1603,"raan_deg":260.9412,"arg_perigee_deg":87.1035,"mean_anomaly_deg":273.0083,"bstar":-6.1286e-5,"rev_number":12132,"period_min":94.104912941921,"perigee_km":474.49296251901,"apogee_km":475.89515405354,"semimajor_km":6853.3310582863,"source":"CELESTRAK","updated_at":"2026-05-25T13:38:18.914250Z"}}}